Other Public Products
Issued by NWS Grand Forks, ND

Home | Current Version | Previous Version | Text Only | Print | Product List | Glossary Off
Versions: 1 2 3 4 5 6 7 8 9 10 11 12 13 14 15 16 17 18 19 20 21 22 23 24 25 26 27 28 29 30 31 32 33 34 35 36 37 38 39 40 41 42 43 44 45 46 47 48 49 50

309
FPUS83 KFGF 250331
OPUFGF
PRAIRIE TO PINES WEATHER ROUNDUP
NATIONAL WEATHER SERVICE EASTERN NORTH DAKOTA/GRAND FORKS ND
1000 PM CDT WED MAY 24 2017

 **SATELLITE DATA USED TO AUGMENT SKY COVER AT AUTOMATED STATIONS**
 *****  WEATHER ACROSS EASTERN NORTH DAKOTA  *****

CITY           SKY/WX    TMP DP  RH WIND       PRES   REMARKS
GRAND FORKS    FAIR      60  42  51 SE16      29.60R
GRAND FORKS AF FAIR      58  42  55 S15       29.60R
GRAND CITY NWS NOT AVBL
BUXTON           N/A     57  42  57 SE12        N/A
DEVILS LAKE    FAIR      56  44  64 SE17      29.53S
FARGO          FAIR      58  44  60 SE14      29.63S
WAHPETON ARPT  FAIR      54  43  66 SE10      29.66R
$$

 *****  WEATHER ACROSS CENTRAL AND WESTERN NORTH DAKOTA  *****

CITY           SKY/WX    TMP DP  RH WIND       PRES   REMARKS
JAMESTOWN      FAIR      56  44  64 SE22      29.53S
BISMARCK       FAIR      63  40  42 SE18      29.40F
MINOT          FAIR      65  39  38 SE13      29.38S
MINOT AFB      MOCLDY    65  39  38 S17G26    29.36F
GARRISON         N/A     62  39  42 SE17      29.38F
WILLISTON      RAIN      58  54  86 SW5       29.40R
DICKINSON      LGT RAIN  62  38  40 SE13      29.32F
HETTINGER      CLOUDY    63  39  41 SE13      29.37R
$$

 *****  OTHER OBSERVATIONS NORTHEAST NORTH DAKOTA  *****

CITY           SKY/WX    TMP DP  RH WIND       PRES   REMARKS
WALHALLA       NOT AVBL
LANGDON        FAIR      55  43  62 SE20      29.57R
CAVALIER       FAIR      59  41  51 S14G20    29.58R
GRAFTON        FAIR      57  43  58 SE15G22   29.61S
CANDO          NOT AVBL
FORT TOTTEN      N/A     56  42  60 SE12      29.95S
ROLLA          FAIR      55  41  58 SE20G28   29.53S
RUGBY          NOT AVBL
 ***** THE ABOVE OBSERVATIONS ARE NON NWS ARE NOT QUALITY
        CONTROLLED AND MAY MIS-REPORT RAIN FOR SNOW...
$$

 *****  OTHER OBSERVATIONS SOUTHEAST NORTH DAKOTA *****

CITY           SKY/WX    TMP DP  RH WIND       PRES   REMARKS
COOPERSTOWN    FAIR      54  43  66 SE18      29.58S
VALLEY CITY    FAIR      54  45  71 SE16G26   29.59F
OAKES          NOT AVBL
GWINNER        CLEAR     54  45  71 MISG      29.60S
SHEYENNE NWR     N/A     53  44  71 SE10      29.95S
BUFFALO          N/A     54  37  52 E17         N/A
WYNDMERE         N/A     54  45  71 SE9         N/A
 ***** THE ABOVE OBSERVATIONS ARE NON NWS ARE NOT QUALITY
       CONTROLLED AND MAY MIS-REPORT RAIN FOR SNOW...
$$

  *****  WEATHER ACROSS NORTHERN MINNESOTA  *****

CITY           SKY/WX    TMP DP  RH WIND       PRES   REMARKS
FLAG ISLAND    NOT AVBL
WARROAD        NOT AVBL
ROSEAU         NOT AVBL
HALLOCK        NOT AVBL
THF RVR FALLS  CLOUDY    57  42  57 SE13      29.67R
HALSTAD          N/A     57  43  59 SE13        N/A
FOSSTON        NOT AVBL
BAUDETTE       FAIR      54  40  59 S7        29.69R
WASKISH        NOT AVBL
CROOKSTON      NOT AVBL
$$
  *****  WEATHER ACROSS CENTRAL AND WEST MINNESOTA  *****

CITY           SKY/WX    TMP DP  RH WIND       PRES   REMARKS
BEMIDJI        NOT AVBL
PARK RAPIDS    CLOUDY    57  39  51 SE6       29.69R
WADENA         NOT AVBL
DETROIT LAKES  NOT AVBL
MOORHEAD       NOT AVBL
FERGUS FALLS   NOT AVBL
ELBOW LAKE     NOT AVBL
MORRIS MN      NOT AVBL
STAPLES        NOT AVBL
WHEATON        NOT AVBL
$$
  *****  WEATHER ELSEWHERE ACROSS MINNESOTA  *****

CITY           SKY/WX    TMP DP  RH WIND       PRES   REMARKS
DULUTH         FAIR      47  42  83 E10       29.76R
INTRNTL FALLS  FAIR      49  39  68 SE3       29.71R
ELY            NOT AVBL
CLOQUET        NOT AVBL
BRAINERD       CLOUDY    55  44  66 VRB5      29.71F
HIBBING        FAIR      46  39  76 SE6       29.75R
ALEXANDRIA     FAIR      52  41  66 SE8       29.69F
SAINT CLOUD    CLOUDY    55  47  74 E3        29.71R
MINNEAPOLIS    CLOUDY    59  44  57 E7        29.71R
$$

  *****  WEATHER ACROSS SOUTH DAKOTA  *****

CITY           SKY/WX    TMP DP  RH WIND       PRES   REMARKS
SIOUX FALLS    FAIR      56  45  66 SE9       29.64F
BROOKINGS      FAIR      52  45  77 SE12      29.65R
WATERTOWN      FAIR      52  44  74 SE9       29.63R
HURON          FAIR      55  46  71 SE12      29.58R
SISSETON         N/A     51  45  79 S8        29.63R
ABERDEEN       FAIR      57  42  57 SE14      29.56F
MITCHELL       FAIR      57  46  66 SE14      29.59F
PIERRE         FAIR      60  43  53 SE22G31   29.41F
MOBRIDGE       FAIR      61  42  49 SE22G30   29.39F
RAPID CITY     FAIR      64  49  57 S12       29.31S
$$

  *****  SOME WEATHER IN NEARBY STATES *****

CITY           SKY/WX    TMP DP  RH WIND       PRES   REMARKS
GLASGOW MT       N/A    N/A N/A N/A MISG      29.37R
GREAT FALLS MT FAIR      51  22  31 W22G36    29.51R
CHEYENNE WY    FAIR      60  38  43 W8        29.62S
SCOTTSBLUFF NE FAIR      66  47  50 NW7       29.43R
OMAHA NE       FAIR      58  45  62 SE5       29.68R
DES MOINES IA  FAIR      57  49  74 CALM      29.69R
DAVENPORT IA   CLOUDY    56  51  84 N12       29.66R
CHICAGO IL     CLOUDY    54  48  80 N15       29.56S
EAU CLAIRE WI  FAIR      51  47  86 CALM      29.71S
LA CROSSE WI   CLOUDY    57  51  80 NE3       29.70R
$$

  *****  SOME NATIONAL WEATHER *****

CITY           SKY/WX    TMP DP  RH WIND       PRES   REMARKS
LA GUARDIA NY  CLOUDY    60  51  72 E14       29.81S
RALEIGH NC     CLOUDY    69  67  93 SE12      29.54F
ATLANTA GA     FAIR      62  52  69 W9        29.58R
NEW ORLEANS LA FAIR      66  56  70 W7        29.75R
OKLAHOMA CITY  FAIR      59  47  64 E8        29.69S
ALBUQUERQUE NM FAIR      80  16   9 W8        29.78R
SALT LAKE CITY CLOUDY    71  49  45 SE14      29.54F
LOS ANGELES CA MOCLDY    59  53  80 W10       29.81S
BOISE ID       FAIR      64  23  21 NW18G28   29.63R
SEATTLE WA     MOCLDY    60  42  51 N6        29.95R
$$

*** WEATHER ACROSS MANITOBA...SASKATCHEWAN AND ONTARIO ***
                ***ONTARIO***

CITY           SKY/WX    TMP DP  RH WIND       PRES   REMARKS
GERALDTON      PTCLDY    50  41  71 E6        29.81R
THUNDER BAY    CLEAR     48  37  66 NE2       29.78R
SIOUX LOOKOUT  PTCLDY    57  28  33 E3        29.73R
TORONTO        CLOUDY    61  50  67 S7        29.63S
BIG TROUT LK   CLEAR     52  30  43 SE6       29.73R
PICKLE LAKE    NOT AVBL
DRYDEN         CLEAR     59  30  33 SE9       29.71S
KENORA         CLEAR     59  30  33 S8        29.68
$$
                *** MANITOBA***

CITY           SKY/WX    TMP DP  RH WIND       PRES   REMARKS
BRANDON        CLOUDY    61  43  51 SE22G30   29.47F
DAUPHIN        CLOUDY    64  39  39 S15G26    29.45S
ISLAND LAKE    PTCLDY    63  34  34 S6        29.61R
PILOT MOUND      N/A     55  39  54 S16         N/A
THE PAS        CLOUDY    63  41  45 SE15G22   29.42R
THOMPSON       MOCLDY    63  36  36 S5        29.54R
WINNIPEG       MOCLDY    61  39  44 SE15      29.59R
LYNN LAKE      MOCLDY    63  37  39 S7        29.44R
CHURCHILL      MOCLDY    48  43  81 NE9       29.52R
GILLAM         PTCLDY    63  37  39 S7        29.56R
$$
                ***SASKATCHEWAN***

CITY           SKY/WX    TMP DP  RH WIND       PRES   REMARKS
ESTEVAN        LGT RAIN  55  54  94 E9        29.31F
KINDERSLEY     CLOUDY    50  39  66 SW16      29.14S
LLOYDMINSTER   LGT RAIN  52  52 100 N18       29.19R
PRINCE ALBERT  LGT RAIN  55  48  76 SE7       29.20R
REGINA         MOCLDY    57  32  38 W5        29.26S
YORKTON          N/A     55  50  82 SE15G22   29.33S



USA.gov is the U.S. government's official web portal to all federal, state and local government web resources and services.